Weather in Barabinsk

Russia / Novosibirsk Oblast     55°21′01″N   78°20′30″E
temp.,
°C
wind,
m/s
gust,
m/s
humid.,
%
clouds,
%
prec.,
mm/h
press.,
hPa
HPBL,
m
7 july, thu
thu701:00+16wnw229461 1.5 100625
04:00+15nw129387 0.0 100716
07:00+15nne239363 0.0 100894
10:00+19e2377100 0.0 1010427
13:00+23ne3466100 0.5 1010979
16:00+24ene45605 0.4 10111417
19:00+23ne356772 1.1 10111255
22:00+18ne488388 0.3 1012130
8 july, fri
fri801:00+15ne478256 0.4 1012116
04:00+14ne47821 0.0 1012109
07:00+14ne47880 0.0 1013175
10:00+19ene58700 0.0 1013468
13:00+23ene56565 0.0 10141128
16:00+24ne56505 0.0 10131880
19:00+24ne476111 0.0 10131649
22:00+19n478093 0.0 1013118
9 july, sat
sat901:00+16ne488213 0.0 1013136
04:00+15ne48830 0.0 1013120
07:00+15ne38838 0.0 1014169
10:00+21ne576639 0.0 1014458
13:00+24ne47551 0.0 10141612
16:00+25ne5650100 0.0 10132141
19:00+24nne466398 0.0 1013558
22:00+20n338017 0.0 101433
10 july, sun
sun1001:00+18nne348063 0.0 101348
04:00+19nne377025 0.0 1014139
07:00+19nne3675100 0.0 1014118
10:00+23nne477010 0.0 1015340
13:00+26ne576048 0.0 1015869
16:00+28nne66512 0.0 10141804
19:00+27n45611 0.0 10141181
22:00+22nnw33730 0.0 101434
11 july, mon
mon1101:00+20nnw348016 0.0 101460
04:00+21n377399 0.0 1014165
07:00+20nne37861 0.0 1015153
10:00+25nne46700 0.0 1015409
13:00+27nne56590 0.0 10151152
16:00+28ne66575 0.0 10151732
19:00+27ne35658 0.3 10151183
22:00+22nne45845 0.6 101675